Location: Kumla
(59.1265°N, 15.1401°E)
Time: 22:44:14
(UTC+01:00)

Vanguard 1 - Pass Details

Date: 12 December 2023
Orbit: 653 x 3825 km, 34.3° (Epoch: 04 March)

Event Time Altitude Azimuth Distance (km) Brightness Sun altitude
Rises 20:13:49 0° 256° (WSW) 6,088 14.8 -37.5°
Reaches altitude 10° 20:18:19 10° 245° (WSW) 5,517 14.3 -38.0°
Maximum altitude 20:31:31 27° 197° (SSW) 5,185 13.5 -39.6°
Enters shadow 20:39:08 22° 171° (S) 5,810 13.6 -40.5°
